Regional Weather Roundup
Issued by NWS

Home | Current Version | Previous Version | Text Only | Print | Product List | Glossary Off
Versions: 1 2 3 4 5 6 7 8 9 10 11 12 13 14 15 16 17 18 19 20 21 22 23 24 25 26 27 28 29 30 31 32 33 34 35 36 37 38 39 40 41 42 43 44 45 46 47 48 49 50

762
ASUS43 KBIS 250802
RWRND

NORTH DAKOTA REGIONAL WEATHER ROUNDUP
NATIONAL WEATHER SERVICE BISMARCK ND
200 AM CST SAT FEB 25 2017

NOTE: "FAIR" INDICATES FEW OR NO CLOUDS BELOW 12,000 FEET WITH NO
SIGNIFICANT WEATHER AND/OR OBSTRUCTIONS TO VISIBILITY.


NDZ001>003-009>011-017-250900-
NORTHWEST NORTH DAKOTA

CITY           SKY/WX    TMP DP  RH WIND       PRES   REMARKS
WILLISTON      CLOUDY    23  20  88 NW3       29.99F
MINOT          LGT SNOW  24  21  88 SW8       29.96F FOG     WCI  15
$$

NDZ018>021-031>035-040>046-250900-
SOUTHWEST NORTH DAKOTA

CITY           SKY/WX    TMP DP  RH WIND       PRES   REMARKS
BISMARCK       FAIR      15  12  88 SE5       30.03F WCI   8
DICKINSON      CLOUDY    19  14  81 S8        29.94F WCI   9
GARRISON         N/A     16  13  88 SW3       29.98F
HETTINGER ARPT PTCLDY    20  14  77 CALM      29.99F
$$

NDZ004>008-012>016-024-026-027-054-250900-
NORTHEAST NORTH DAKOTA

CITY           SKY/WX    TMP DP  RH WIND       PRES   REMARKS
GRAND FORKS    PTCLDY    16   9  74 SW6       30.04F WCI   7
GRND FRKS AFB  PTCLDY    14  10  85 W3        30.03F
DEVILS LAKE    FAIR      15  11  83 SW6       29.98F WCI   6
$$

NDZ022-023-025-028>030-036>039-047>053-250900-
SOUTHEAST NORTH DAKOTA

CITY           SKY/WX    TMP DP  RH WIND       PRES   REMARKS
FARGO          CLEAR     15  12  88 CALM      30.06F
JAMESTOWN      FAIR      15  11  83 SW3       30.02F
$$





USA.gov is the U.S. government's official web portal to all federal, state and local government web resources and services.